Location: Beutels
(47.8767°N, 9.8584°E)
Time: 23:48:36
(UTC+00:00)

Cosmos 1743 Rocket - Pass Details

Date: 19 May 2025
Orbit: 598 x 626 km, 82.6° (Epoch: 22 June)

Event Time Altitude Azimuth Distance (km) Brightness Sun altitude
Rises 23:20:51 0° 346° (NNW) 2,923 8.4 -22.1°
Reaches altitude 10° 23:23:08 10° 341° (NNW) 2,009 7.2 -22.1°
Maximum altitude 23:27:27 51° 266° (W) 785 3.9 -22.1°
Enters shadow 23:27:53 49° 245° (WSW) 806 3.9 -22.1°
